Location: Centerville
(32.8776°N, 96.6203°W)
Time: 16:16:09
(UTC+00:00)

Cosmos 2237 - Pass Details

Date: 17 June 2021
Orbit: 848 x 854 km, 70.8° (Epoch: 26 July)

Event Time Altitude Azimuth Distance (km) Brightness Sun altitude
Exits shadow 03:02:51 - 189° (S) 3,170 6.9 -15.6°
Reaches altitude 10° 03:04:43 10° 187° (S) 2,463 6.3 -15.8°
Maximum altitude 03:10:17 62° 107° (ESE) 947 4.2 -16.7°
Drops below altitude 10° 03:15:53 10° 28° (NNE) 2,474 6.8 -17.5°
Sets 03:18:22 0° 25° (NNE) 3,413 7.6 -17.9°
